[[{"header":{"parameterUnit":"m.s-1","parameterCategory":1,"la1":30.2991,"la2":30.254,"lo1":-89.0895,"lo2":-89.0444,"dy":0.0017,"dx":0.0017,"nx":28,"ny":28,"refTime":"2026-02-01T03:00:00:Z","depth":0,"parameterNumber":2,"parameterNumberName":"U-component_of_WINDS"},"data":[0,0,0,0,0,0,0,0,0,0,0,0,0,0,0,0,0,0,0,0,0,0,0,0,0,0,0,0,0,0,0,0,0,0,0,0,0,0,0,0,0,0,0,0,0,0,0,0,0,0,0,0,0,0,0,0,0,0,2.3923,2.3923,0,2.3937,2.3937,2.3937,2.3908,2.3907,2.3906,2.3905,2.3919,2.392,2.3921,0,0,0,0,0,0,0,0,0,0,0,0,0,2.3871,2.3872,2.3923,2.3923,2.3923,2.3937,2.3937,2.3937,2.3908,2.3907,2.3905,2.3904,2.3918,2.392,2.3921,0,0,0,0,0,0,0,0,0,0,0,0,0,2.389,2.3872,2.3923,2.391,2.3909,2.3937,2.3937,2.3937,2.3908,2.3907,2.3905,2.3904,2.3918,2.392,2.3922,2.3962,0,0,2.3927,2.3928,0,0,0,0,0,0,0,0,2.3889,2.3892,2.3912,2.3911,2.391,2.3919,2.3924,2.3946,2.3908,2.3908,2.3905,2.3903,2.392,2.3922,2.3927,2.3963,2.3964,2.3928,2.3929,2.393,2.393,0,0,0,0,0,0,0,2.3887,2.3891,2.3928,2.3912,2.3911,2.3904,2.3905,2.3928,2.3922,2.3908,2.3906,2.3908,2.3919,2.3926,2.3928,2.3964,2.3928,2.3929,2.393,2.3931,2.4035,2.4036,0,0,0,0,0,0,2.3888,2.389,2.3928,2.3929,2.3896,2.3906,2.3907,2.3917,2.3922,2.3921,2.3909,2.3907,2.3923,2.3925,2.3928,2.3977,2.393,2.3931,2.3932,2.4033,2.4035,2.4037,0,0,0,0,0,0,2.3887,2.3891,2.3927,2.3909,2.3913,2.3908,2.392,2.3919,2.3925,2.3923,2.3921,2.3917,2.3922,2.3925,2.3954,2.3977,2.3932,2.3934,2.4031,2.4034,2.4036,2.4074,0,0,0,0,0,0,2.3885,2.3891,2.3906,2.3909,2.3914,2.3953,2.3922,2.392,2.3928,2.3925,2.393,2.3929,2.3921,2.3952,2.3956,2.3979,2.3935,2.4029,2.4032,2.4035,2.4071,2.4077,2.4083,0,0,0,0,0,2.3884,2.3916,2.3907,2.3912,2.3933,2.3955,2.3957,2.3948,2.393,2.3946,2.3945,2.3929,2.3974,2.3955,2.396,2.3983,2.4028,2.4032,2.4035,2.4068,2.4076,2.4083,0,0,0,0,0,0,2.3915,2.3916,2.3906,2.3941,2.3948,2.395,2.3969,2.3957,2.3969,2.3965,2.3953,2.3954,2.3986,2.3987,2.3966,2.4023,2.3998,2.4003,2.4021,2.4029,2.4035,2.4034,2.3937,0,0,0,0,0,2.3926,2.3944,2.3944,2.3974,2.3978,2.3973,2.3982,2.3975,2.3981,2.3984,2.3985,2.3992,2.4008,2.4018,2.4033,2.4071,2.4072,2.4089,2.4096,2.4101,2.4105,2.4127,2.4135,2.4049,2.4049,2.4049,0,0,2.3949,2.3952,2.3964,2.3981,2.3985,2.4004,2.3976,2.3996,2.401,2.3987,2.4015,2.4016,2.4023,2.4057,2.4072,2.406,2.4129,2.4105,2.411,2.4111,2.4131,2.4139,2.4146,2.4051,2.4051,2.405,0,0,2.4001,2.4004,2.4031,2.4036,2.4044,2.404,2.4047,2.405,2.405,2.4078,2.4061,2.4078,2.4105,2.4111,2.4118,2.4174,2.416,2.4179,2.4211,2.4232,2.4239,2.4245,2.4265,2.4273,2.4183,2.4183,2.4183,0,2.4028,2.4056,2.4045,2.4068,2.4076,2.4057,2.4084,2.4089,2.4101,2.4108,2.4093,2.4128,2.4131,2.4167,2.4181,2.4187,2.4194,2.4178,2.4239,2.4245,2.425,2.4269,2.4277,2.4185,2.4185,2.4185,2.4185,0,2.4089,2.4109,2.4129,2.4142,2.4153,2.4177,2.4171,2.4183,2.4175,2.4173,2.4203,2.4206,2.4221,2.4229,2.4221,2.4265,2.4257,2.4241,2.4215,2.4261,2.4279,2.4286,2.4188,2.4188,2.4187,2.4186,0,0,2.416,2.4168,2.4176,2.4182,2.4189,2.4204,2.4229,2.4244,2.4255,2.4264,2.4284,2.4309,2.4294,2.4302,2.4295,2.4313,2.4358,2.4295,2.4295,2.4307,2.4407,2.4419,2.4428,2.4349,2.4351,2.4352,2.4407,0,2.4212,2.4253,2.4246,2.4286,2.4305,2.4287,2.4308,2.4316,2.4315,2.4331,2.433,2.4347,2.4327,2.4332,2.4349,2.4349,2.4378,2.4345,2.4368,2.4369,2.4367,2.4437,2.445,2.4502,2.4414,2.4415,2.4416,0,2.4277,2.429,2.4332,2.4338,2.4346,2.4365,2.4379,2.4394,2.4402,2.4401,2.441,2.44,2.4424,2.4398,2.4432,2.441,2.4419,2.4421,2.4422,2.4424,2.4395,2.4442,2.4518,2.4526,2.4427,2.4426,2.4425,0,2.4325,2.4353,2.4382,2.4388,2.4395,2.4409,2.4413,2.442,2.443,2.4442,2.4449,2.4464,2.4473,2.4485,2.4479,2.446,2.4514,2.4488,2.4514,2.4514,2.4526,2.4525,2.4605,2.4532,2.4532,2.4531,2.4531,0,2.4384,2.4411,2.4404,2.4422,2.4452,2.4444,2.4474,2.4475,2.4482,2.45,2.4486,2.4503,2.4494,2.4512,2.4507,2.4537,2.454,2.454,2.4539,2.4541,2.4542,2.4547,2.4544,2.4533,2.4533,2.4533,2.4532,0,2.4443,2.4439,2.447,2.4475,2.4477,2.4499,2.4504,2.4521,2.4519,2.4543,2.4548,2.4546,2.4566,2.4561,2.4582,2.458,2.4617,2.4611,2.4614,2.4613,2.464,2.4638,2.4726,2.4738,2.4657,2.4657,2.4658,0,2.448,2.4501,2.4508,2.452,2.4525,2.4544,2.4554,2.4547,2.4558,2.457,2.4586,2.4605,2.4619,2.4651,2.4652,2.4668,2.4663,2.4693,2.4665,2.4668,2.4664,2.4663,2.4665,2.4698,2.4699,2.47,2.4701,0,2.4548,2.4545,2.4561,2.4577,2.459,2.4602,2.4613,2.4623,2.4617,2.4631,2.4651,2.4662,2.4685,2.4703,2.4719,2.4723,2.4711,2.471,2.4717,2.472,2.4721,2.4722,2.463,2.4707,2.4707,2.4706,2.4706,2.4706,2.4597,2.4615,2.4624,2.4642,2.465,2.466,2.4677,2.4679,2.4695,2.4713,2.4708,2.4731,2.474,2.476,2.4766,2.4784,2.4773,2.4783,2.4785,2.4788,2.4792,2.4718,2.4787,2.4786,2.4786,2.4786,2.4786,0,2.4665,2.467,2.4687,2.4703,2.4718,2.4705,2.4717,2.473,2.4751,2.476,2.4775,2.4799,2.4818,2.482,2.4838,2.4852,2.4847,2.4857,2.4856,2.4857,2.48,2.4793,2.4861,2.4861,2.4861,2.4861,2.4861,2.4861,2.4701,2.4731,2.473,2.4764,2.4769,2.4792,2.4799,2.4809,2.4817,2.4844,2.486,2.4862,2.4868,2.4887,2.4903,2.4904,2.4911,2.4923,2.4922,2.4868,2.4861,2.4854,2.4847,2.4925,2.4925,2.4977,2.4977,2.4978]},{"header":{"parameterUnit":"m.s-1","parameterCategory":1,"la1":30.2991,"la2":30.254,"lo1":-89.0895,"lo2":-89.0444,"dy":0.0017,"dx":0.0017,"nx":28,"ny":28,"refTime":"2026-02-01T03:00:00:Z","depth":0,"parameterNumber":3,"parameterNumberName":"V-component_of_WINDS"},"data":[0,0,0,0,0,0,0,0,0,0,0,0,0,0,0,0,0,0,0,0,0,0,0,0,0,0,0,0,0,0,0,0,0,0,0,0,0,0,0,0,0,0,0,0,0,0,0,0,0,0,0,0,0,0,0,0,0,0,-4.208,-4.2081,0,-4.222,-4.2222,-4.2223,-4.2249,-4.2248,-4.2247,-4.2246,-4.2386,-4.239,-4.2395,0,0,0,0,0,0,0,0,0,0,0,0,0,-4.1831,-4.1836,-4.2079,-4.2081,-4.2083,-4.222,-4.2222,-4.2224,-4.2249,-4.2248,-4.2247,-4.2245,-4.2384,-4.239,-4.2396,0,0,0,0,0,0,0,0,0,0,0,0,0,-4.1952,-4.1837,-4.2079,-4.2112,-4.2117,-4.222,-4.2222,-4.2224,-4.225,-4.2248,-4.2246,-4.2245,-4.2382,-4.2389,-4.2396,-4.2475,0,0,-4.2418,-4.2421,0,0,0,0,0,0,0,0,-4.1945,-4.1961,-4.2106,-4.211,-4.2115,-4.2215,-4.2186,-4.2308,-4.225,-4.2199,-4.2246,-4.2244,-4.233,-4.2342,-4.2372,-4.2481,-4.2487,-4.2419,-4.2423,-4.2426,-4.2428,0,0,0,0,0,0,0,-4.1937,-4.1955,-4.2135,-4.2108,-4.2114,-4.212,-4.2135,-4.2209,-4.2272,-4.2203,-4.2206,-4.2222,-4.2332,-4.2365,-4.2375,-4.2489,-4.2419,-4.2425,-4.243,-4.2432,-4.2674,-4.2676,0,0,0,0,0,0,-4.1923,-4.1948,-4.2131,-4.2139,-4.2025,-4.2126,-4.2143,-4.2185,-4.2272,-4.2283,-4.2223,-4.2223,-4.2353,-4.2367,-4.238,-4.248,-4.2426,-4.2433,-4.2437,-4.2672,-4.2674,-4.2677,0,0,0,0,0,0,-4.1918,-4.1939,-4.2125,-4.2045,-4.2069,-4.2132,-4.2179,-4.2189,-4.2221,-4.2287,-4.2298,-4.2245,-4.2352,-4.237,-4.2452,-4.2485,-4.2436,-4.2443,-4.2669,-4.2672,-4.2675,-4.2679,0,0,0,0,0,0,-4.191,-4.1937,-4.1968,-4.2045,-4.2073,-4.2195,-4.2181,-4.2193,-4.2234,-4.2234,-4.231,-4.2321,-4.2352,-4.2441,-4.2459,-4.2494,-4.2448,-4.2667,-4.2671,-4.2674,-4.2676,-4.2682,-4.2686,0,0,0,0,0,-4.1901,-4.1961,-4.1969,-4.1991,-4.2113,-4.2197,-4.2213,-4.2249,-4.2236,-4.2268,-4.231,-4.2318,-4.2478,-4.2449,-4.247,-4.2507,-4.2665,-4.2669,-4.2674,-4.2674,-4.2681,-4.2686,0,0,0,0,0,0,-4.1884,-4.1972,-4.1981,-4.2068,-4.2125,-4.2201,-4.2242,-4.2255,-4.2315,-4.2313,-4.2355,-4.2371,-4.2452,-4.2488,-4.2454,-4.2589,-4.2571,-4.258,-4.2563,-4.257,-4.2575,-4.2566,-4.2454,0,0,0,0,0,-4.1891,-4.1953,-4.2026,-4.2095,-4.2124,-4.2178,-4.2216,-4.2239,-4.2299,-4.2323,-4.2372,-4.2429,-4.2492,-4.2533,-4.2595,-4.2681,-4.2699,-4.2717,-4.2722,-4.2726,-4.2734,-4.2785,-4.2795,-4.2692,-4.2692,-4.2692,0,0,-4.1904,-4.196,-4.1996,-4.2093,-4.214,-4.2203,-4.2198,-4.2264,-4.2311,-4.2332,-4.2414,-4.2452,-4.2519,-4.2604,-4.2644,-4.2636,-4.2766,-4.2732,-4.2735,-4.2741,-4.2791,-4.28,-4.2809,-4.2695,-4.2695,-4.2694,0,0,-4.1962,-4.2009,-4.2074,-4.2122,-4.2194,-4.223,-4.2246,-4.2321,-4.2347,-4.243,-4.2449,-4.2505,-4.2613,-4.266,-4.2699,-4.2778,-4.2788,-4.2796,-4.2824,-4.2873,-4.2881,-4.2889,-4.2919,-4.2929,-4.2803,-4.2803,-4.2803,0,-4.1969,-4.2066,-4.2105,-4.2173,-4.2215,-4.224,-4.2306,-4.235,-4.2438,-4.2467,-4.2457,-4.2596,-4.2642,-4.274,-4.276,-4.2789,-4.2809,-4.2788,-4.2877,-4.2885,-4.2892,-4.2922,-4.2933,-4.2804,-4.2804,-4.2804,-4.2804,0,-4.2073,-4.214,-4.2183,-4.2271,-4.2318,-4.2384,-4.2434,-4.2477,-4.2497,-4.2534,-4.2619,-4.2676,-4.2751,-4.2776,-4.2795,-4.2878,-4.2871,-4.2869,-4.2851,-4.2902,-4.2931,-4.2942,-4.2805,-4.2805,-4.2805,-4.2805,0,0,-4.2122,-4.2232,-4.2248,-4.2289,-4.2371,-4.2424,-4.2491,-4.2567,-4.2604,-4.2664,-4.2723,-4.2815,-4.2815,-4.2858,-4.2883,-4.2926,-4.2988,-4.2918,-4.2921,-4.2931,-4.3085,-4.3087,-4.31,-4.2995,-4.2997,-4.2999,-4.308,0,-4.2191,-4.2314,-4.2353,-4.2456,-4.252,-4.2545,-4.2604,-4.2661,-4.2698,-4.2757,-4.2797,-4.2863,-4.2856,-4.2883,-4.2927,-4.2971,-4.3019,-4.2965,-4.305,-4.3053,-4.3034,-4.3114,-4.3116,-4.319,-4.3091,-4.3093,-4.3094,0,-4.2287,-4.2352,-4.2462,-4.254,-4.2568,-4.262,-4.2694,-4.275,-4.2816,-4.284,-4.289,-4.2912,-4.2984,-4.2962,-4.3063,-4.3025,-4.3062,-4.3089,-4.3093,-4.3103,-4.3077,-4.3128,-4.3215,-4.3226,-4.3112,-4.311,-4.3109,0,-4.2315,-4.2429,-4.2511,-4.2545,-4.2636,-4.2673,-4.2713,-4.2777,-4.2821,-4.2885,-4.2914,-4.2985,-4.3024,-4.3078,-4.3119,-4.3099,-4.3217,-4.3197,-4.324,-4.3239,-4.3264,-4.3262,-4.3359,-4.3285,-4.3285,-4.3285,-4.3285,0,-4.2389,-4.2455,-4.2525,-4.2575,-4.2651,-4.2695,-4.2769,-4.281,-4.2867,-4.2926,-4.2951,-4.3005,-4.3055,-4.3116,-4.3148,-4.3228,-4.3245,-4.3267,-4.3275,-4.3265,-4.3263,-4.3291,-4.3287,-4.3288,-4.3287,-4.3287,-4.3286,0,-4.2432,-4.2482,-4.2573,-4.2653,-4.2675,-4.2728,-4.2796,-4.2846,-4.2885,-4.2959,-4.2979,-4.3039,-4.3113,-4.3159,-4.3251,-4.3273,-4.3362,-4.3367,-4.334,-4.3344,-4.3384,-4.3381,-4.3504,-4.3524,-4.3435,-4.3436,-4.3436,0,-4.2477,-4.2529,-4.2616,-4.2659,-4.2699,-4.2766,-4.2812,-4.2858,-4.2904,-4.2985,-4.3025,-4.3101,-4.3164,-4.328,-4.3332,-4.3404,-4.3412,-4.345,-4.3423,-4.3413,-4.3415,-4.3412,-4.3418,-4.3455,-4.3456,-4.3456,-4.3457,0,-4.2551,-4.2574,-4.264,-4.2715,-4.277,-4.2831,-4.2891,-4.2924,-4.298,-4.3031,-4.3108,-4.3157,-4.3254,-4.3329,-4.3406,-4.3446,-4.3462,-4.3465,-4.3479,-4.3471,-4.3454,-4.3466,-4.3354,-4.3462,-4.3462,-4.3461,-4.3461,-4.3461,-4.2598,-4.2647,-4.2717,-4.279,-4.2842,-4.2899,-4.2951,-4.2997,-4.3062,-4.3146,-4.3168,-4.3249,-4.3315,-4.3421,-4.3463,-4.3527,-4.3521,-4.3541,-4.3546,-4.3551,-4.3553,-4.3443,-4.354,-4.354,-4.354,-4.354,-4.354,0,-4.2676,-4.2723,-4.279,-4.2876,-4.2934,-4.2945,-4.3013,-4.3061,-4.3132,-4.3194,-4.3256,-4.3346,-4.3419,-4.3478,-4.3554,-4.3594,-4.3603,-4.3613,-4.3611,-4.362,-4.3552,-4.3533,-4.3604,-4.3604,-4.3604,-4.3604,-4.3604,-4.3604,-4.2723,-4.2807,-4.2839,-4.2949,-4.2995,-4.3076,-4.3115,-4.3168,-4.3218,-4.3317,-4.338,-4.3418,-4.3479,-4.356,-4.3629,-4.3644,-4.3672,-4.368,-4.3697,-4.3632,-4.3625,-4.3618,-4.3601,-4.3685,-4.3685,-4.3761,-4.3761,-4.3762]}]]